Weather History for KPGA - November, 2013

Change the Weather History Date:

Monday, November 4, 2013

  Actual Average Record
Temperature  
Mean Temperature 46 °F -  
Max Temperature 52 °F 59 °F 71 °F (2011)
Min Temperature 39 °F 38 °F 30 °F (1991)
Degree Days  
Heating Degree Days 20    
Moisture  
Dew Point 20 °F    
Average Humidity 35    
Maximum Humidity 63    
Minimum Humidity 12    
Precipitation  
Precipitation 0.00 in - - ()
Sea Level Pressure  
Sea Level Pressure 29.85 in    
Wind  
Wind Speed 3 mph (North)    
Max Wind Speed 10 mph    
Max Gust Speed 17 mph    
Visibility 10 miles    
Events      
Averages and records for this station are not official NWS values.
T = Trace of Precipitation, MM = Missing Value Source: NWS Daily Summary

Daily Weather History Graph

Daily Weather History Graph

Search for Another Location

Airport or City:

Trip Planner

Search our weather history database for the weather conditions in past years. The results will help you decide how hot, cold, wet, or windy it might be!

Date:

Astronomy

Nov. 04, 2013 Rise Set
Actual Time 6:53 AM MST 5:25 PM MST
Civil Twilight 6:26 AM MST 5:52 PM MST
Nautical Twilight 5:55 AM MST 6:22 PM MST
Astronomical Twilight 5:24 AM MST 6:53 PM MST
Moon 8:06 AM MST (11/4) 6:34 PM MST (11/4)
Length of Visible Light 11h 26m
Length of Day
10h 31m
New Moon, 2% of the Moon is Illuminated
Nov 4
New Moon
Nov 9
First Quarter
Nov 17
Full
Nov 25
Last Quarter
Dec 2
New

Hourly Weather History & Observations

Time (MST) Temp. Windchill Dew Point Humidity Pressure Visibility Wind Dir Wind Speed Gust Speed Precip Events Conditions
12:53 AM 48.0 °F - 25.0 °F 41% 29.80 in 10.0 mi Calm Calm - N/A   Clear
1:53 AM 46.0 °F - 25.0 °F 44% 29.80 in 10.0 mi Calm Calm - N/A   Clear
2:53 AM 44.1 °F 40.8 °F 21.9 °F 42% 29.80 in 10.0 mi SSE 5.8 mph - N/A   Clear
3:53 AM 42.1 °F 39.2 °F 19.9 °F 41% 29.80 in 10.0 mi ESE 4.6 mph - N/A   Clear
4:53 AM 42.1 °F 39.2 °F 18.0 °F 38% 29.82 in 10.0 mi SSE 4.6 mph - N/A   Clear
5:53 AM 39.9 °F - 19.0 °F 43% 29.85 in 9.0 mi Calm Calm - N/A   Clear
6:53 AM 41.0 °F - 17.1 °F 38% 29.86 in 10.0 mi Calm Calm - N/A   Clear
7:53 AM 43.0 °F - 17.1 °F 35% 29.88 in 10.0 mi Calm Calm - N/A   Clear
8:53 AM 46.0 °F - 15.1 °F 29% 29.91 in 10.0 mi Calm Calm - N/A   Clear
9:53 AM 46.9 °F - 12.9 °F 25% 29.88 in 10.0 mi NNE 3.5 mph - N/A   Clear
10:53 AM 48.0 °F - 12.0 °F 24% 29.88 in 10.0 mi North 5.8 mph - N/A   Clear
11:53 AM 48.0 °F - 12.9 °F 24% 29.84 in 10.0 mi North 4.6 mph - N/A   Clear
12:53 PM 50.0 °F - 12.9 °F 23% 29.83 in 10.0 mi North 8.1 mph - N/A   Clear
1:53 PM 51.1 °F - 12.9 °F 22% 29.80 in 10.0 mi NE 6.9 mph - N/A   Clear
2:53 PM 51.1 °F - 14.0 °F 23% 29.81 in 10.0 mi North 6.9 mph - N/A   Clear
3:53 PM 50.0 °F - 14.0 °F 24% 29.83 in 10.0 mi Calm Calm - N/A   Clear
4:53 PM 50.0 °F - 16.0 °F 26% 29.83 in 10.0 mi Calm Calm - N/A   Clear
5:53 PM 48.9 °F - 15.1 °F 26% 29.86 in 10.0 mi NNE 3.5 mph - N/A   Scattered Clouds
6:53 PM 48.0 °F - 34.0 °F 58% 29.89 in 10.0 mi NW 10.4 mph - N/A   Partly Cloudy
7:53 PM 46.9 °F - 34.0 °F 61% 29.88 in 10.0 mi NW 8.1 mph - N/A   Clear
8:53 PM 46.9 °F - 34.0 °F 61% 29.88 in 10.0 mi NW 6.9 mph - N/A   Mostly Cloudy
9:53 PM 46.0 °F 42.5 °F 34.0 °F 63% 29.88 in 10.0 mi WNW 6.9 mph - N/A   Mostly Cloudy
10:53 PM 45.0 °F 41.2 °F 26.1 °F 48% 29.90 in 10.0 mi West 6.9 mph - N/A   Mostly Cloudy
11:53 PM 44.1 °F 39.0 °F 24.1 °F 45% 29.92 in 10.0 mi WNW 9.2 mph 17.3 mph N/A   Mostly Cloudy